Location: Newark
(50.0306°N, 2.3272°E)
Time: 06:27:56
(UTC+00:00)

Transit 2A Rocket - Pass Details

Date: 09 December 2019
Orbit: 593 x 910 km, 66.7° (Epoch: 25 January)

Event Time Altitude Azimuth Distance (km) Brightness Sun altitude
Rises 18:40:12 0° 263° (W) 2,897 9.3 -26.3°
Reaches altitude 10° 18:43:03 10° 281° (WNW) 1,962 8.0 -26.8°
Maximum altitude 18:46:13 19° 328° (NNW) 1,441 6.7 -27.3°
Enters shadow 18:46:53 19° 340° (NNW) 1,466 6.6 -27.4°
Drops below altitude 10° 18:49:21 10° 15° (NNE) 1,937 - -27.8°
Sets 18:52:09 0° 33° (NNE) 2,847 - -28.3°
